{"data":{"norad_id":60304,"epoch":"2026-09-21T06:47:35.361024Z","epoch_age_seconds":117930,"freshness":"FRESH","line1":"1 60304U 24133D   26264.28304816  .00000402  00000+0  81717-5 0  9992","line2":"2 60304  53.1587 262.0621 0001042  76.4016 283.7118 15.69709567124534","mean_motion":15.69709567,"eccentricity":0.0001042,"inclination_deg":53.1587,"raan_deg":262.0621,"arg_perigee_deg":76.4016,"mean_anomaly_deg":283.7118,"bstar":8.1717e-6,"rev_number":12453,"period_min":91.736715521974,"perigee_km":359.02590396842,"apogee_km":360.43007503223,"semimajor_km":6737.8649895003,"source":"CELESTRAK","updated_at":"2026-09-22T09:00:49.197050Z"}}